STARLINK-3396, 51129

Orbit data source: Space-Track

STARLINK-3396, 51129 is a payload satellite owned by SpaceX/Seattle (US) in LEO that was launched on Wed, 19 Jan 2022 UTC via an FALCON 9 launch vehicle from the Air Force Eastern Test Range (AFETR). Payload-class satellites include a variety of spacecraft equipped with specific instruments for various scientific and technological missions. These include communications satellites like Starlink; space stations such as the ISS; scientific satellites like the Hubble; Earth observation satellites from companies like Planet Labs, Umbra, and HawkEye 360; GPS; miniature CubeSats for education and research; and military/defense satellites.

Loading next visibility...
Identifier
51129, 2022-005AB
Orbit
LEO
Country
Flag of USUS
Related business
Manufacturer
SpaceX/Seattle
Mission
Operational Commercial Communications
Bus & Motor
STARLINK, Unknown motor
Mass
297 kg wet, ~275 kg dry
Launch date (UTC)
2022-01-19 (4 years ago)
Launch vehicle
FALCON 9
Launch site
Air Force Eastern Test Range (AFETR)
Object type
Payload
Rocket body
Debris
Shape & HBR
Box + 1 Pan, 10.1 m
Radar Cross Section
13.562 m², Large (>1 m²)

Expand to show TLE details & history
Last TLE update: 2 days ago

TLE from 2 days ago
0 STARLINK-3396
1 51129U 22005AB  26171.43375424 -.00000113  00000-0  10982-4 0  9996
2 51129  53.1584 197.7683 0001050  74.8927 285.2180 15.08830643244240
Epoch: 2026-06-20T10:24Z
TLE epoch observation values (Epoch: 2026-06-20T10:24:36.366Z)
Latitude
-0.00006°
Longitude
132.96829°
Altitude
540.473 km
Speed
7.593 km/s
True Right ascension
13h 11m 04s
True Declination
0° 00' 00"
Sunlit
Object was in daylight at epoch
Visualization orbit readout
Latitude
Unknown
Longitude
Unknown
Altitude
Unknown
Speed
Unknown
Apparent Right ascension
Unknown
Apparent Declination
Unknown
Sunlit
N/A
Visualization observer readout
Local Sidereal Time
21:53:58
Azimuth
Unknown
Elevation
Unknown
Doppler factor
Unknown
Orbital elements
Apogee altitude
540.753 km
Perigee altitude
539.3 km
Semi-major axis
6,918.163 km
Eccentricity
0.00011
Inclination
53.1584°
RAAN
197.7683°
Arg. of periapsis
74.8927°
True anomaly
285.20639°
Mean anomaly
285.218°
Eccentric anomaly
285.21219°
Mean motion
3.77187 °/min
Orbital period
95.44 mins
BSTAR
0.000010982
Loading maneuver chart data...
Computing Atmospheric mass density...
Loading historical data...
Loading historical data...
Loading historical data...
Loading historical data...
Loading historical data...
Loading historical data...
Loading historical data...

Documentation

Showing up to 5 results
|